Location: Sungai Laei
(2.6000°N, 113.7167°E)
Time: 13:18:51
(UTC+00:00)

Cosmos 2082 Rocket - Visible Passes

Search period start: 26 September 2022 00:00
Search period end: 06 October 2022 00:00
Orbit: 834 x 852 km, 71.0° (Epoch: 25 September)

Date Brightness Start Highest point End Pass type
(mag) Time Alt. Az. Time Alt. Az. Time Alt. Az.
26 Sep 3.5 19:54:33 35° ENE 19:54:33 35° ENE 19:58:08 10° NNE visible
26 Sep 3.9 21:36:32 11° WNW 21:36:38 11° WNW 21:38:25 10° NW visible
27 Sep 4.4 19:42:11 17° NE 19:42:11 17° NE 19:43:30 10° NE visible
27 Sep 4.1 21:24:08 10° NW 21:24:08 10° NW 21:24:16 10° NW visible
